SQ5DCP-1 Weather Reports


time (UTC)temp
C
wind
direction
speed
KPH
gust
KPH
rain 1hr
cm
rain 24hr
cm
rain mn
cm
humidity
%
barometer
mb
20200606171534 23 212 0.0 4.8 0.00 0.28 0.03 52 1006.8
20200606171034 23 225 1.6 4.8 0.00 0.28 0.03 52 1006.7
20200606170533 23 232 1.6 1.6 0.00 0.28 0.03 52 1006.8
20200606170033 23 247 1.6 4.8 0.00 0.28 0.03 52 1006.8
20200606165533 23 247 1.6 4.8 0.00 0.28 0.03 53 1006.8
20200606165102 23 0.0 0.0 0.00 0.28 0.03 54 1006.7
20200606164602 23 0.0 1.6 0.00 0.28 0.03 53 1006.7
20200606164031 23 0.0 0.0 0.00 0.28 0.03 53 1006.5
20200606163531 23 0.0 0.0 0.00 0.28 0.03 53 1006.5
20200606163101 23 0.0 0.0 0.00 0.28 0.03 52 1006.6
20200606162600 23 0.0 0.0 0.00 0.28 0.03 50 1006.7
20200606162100 23 135 0.0 4.8 0.00 0.28 0.03 49 1006.6
20200606161529 23 162 1.6 4.8 0.00 0.28 0.03 49 1006.5
20200606161059 24 239 1.6 4.8 0.00 0.28 0.03 47 1006.5
20200606160528 24 215 1.6 4.8 0.00 0.28 0.03 47 1006.5
20200606160028 24 165 1.6 4.8 0.00 0.28 0.03 47 1006.5
20200606155528 24 240 1.6 4.8 0.00 0.28 0.03 46 1006.5
20200606155027 24 227 3.2 6.4 0.00 0.28 0.03 45 1006.5
20200606154527 25 234 4.8 11.3 0.00 0.28 0.03 44 1006.4
20200606154026 25 250 3.2 8.0 0.00 0.28 0.03 43 1006.4
20200606153526 25 259 6.4 11.3 0.00 0.28 0.03 43 1006.4
20200606153025 25 240 4.8 12.9 0.00 0.28 0.03 43 1006.3
20200606152555 25 253 6.4 16.1 0.00 0.28 0.03 42 1006.3
20200606152024 25 241 6.4 16.1 0.00 0.28 0.03 41 1006.3
20200606151524 26 251 6.4 12.9 0.00 0.28 0.03 40 1006.3
20200606151054 26 246 9.7 19.3 0.00 0.30 0.03 39 1006.3
20200606150523 26 252 11.3 19.3 0.00 0.30 0.03 39 1006.3
20200606150023 26 251 11.3 22.5 0.00 0.30 0.03 40 1006.3
20200606145522 26 235 11.3 22.5 0.00 0.30 0.03 41 1006.4
20200606145052 26 234 9.7 17.7 0.00 0.30 0.03 41 1006.4
20200606144552 26 233 9.7 22.5 0.00 0.30 0.03 42 1006.4
20200606144052 26 242 12.9 24.1 0.00 0.30 0.03 40 1006.4
20200606143551 26 250 6.4 17.7 0.00 0.33 0.03 41 1006.5
20200606143050 27 235 8.0 17.7 0.00 0.38 0.03 40 1006.5
20200606142550 27 235 9.7 17.7 0.00 0.43 0.03 40 1006.5
20200606142020 27 234 11.3 22.5 0.00 0.43 0.03 39 1006.4
20200606141519 27 240 11.3 22.5 0.00 0.43 0.03 39 1006.4
20200606141019 27 234 9.7 22.5 0.00 0.43 0.03 41 1006.3
20200606140518 27 213 8.0 19.3 0.00 0.43 0.03 41 1006.3
20200606140048 27 159 6.4 19.3 0.00 0.43 0.03 40 1006.2
20200606135547 27 193 9.7 17.7 0.00 0.43 0.03 40 1006.3
20200606135047 27 223 9.7 17.7 0.00 0.43 0.03 41 1006.4
20200606134546 27 215 8.0 24.1 0.00 0.53 0.03 42 1006.3
20200606134046 27 220 11.3 22.5 0.00 0.53 0.03 42 1006.4
20200606133546 26 224 8.0 17.7 0.00 0.53 0.03 44 1006.3
20200606133045 26 179 8.0 19.3 0.00 0.53 0.03 45 1006.4
20200606132545 26 220 11.3 29.0 0.00 0.53 0.03 43 1006.5
20200606132044 26 246 9.7 25.7 0.00 0.53 0.03 43 1006.5
20200606131544 26 216 8.0 22.5 0.00 0.53 0.03 42 1006.5
20200606131043 26 219 12.9 25.7 0.00 0.53 0.03 43 1006.4
20200606130543 26 224 11.3 24.1 0.00 0.53 0.03 45 1006.3
20200606130042 26 206 9.7 19.3 0.00 0.53 0.03 44 1006.4
20200606125542 26 216 12.9 24.1 0.00 0.53 0.03 45 1006.4
20200606125042 25 241 11.3 25.7 0.00 0.53 0.03 46 1006.5
20200606124541 25 191 9.7 24.1 0.00 0.53 0.03 45 1006.5
20200606124041 26 161 11.3 24.1 0.00 0.53 0.03 45 1006.5
20200606123540 26 189 12.9 30.6 0.00 0.53 0.03 45 1006.5
20200606123040 25 170 9.7 22.5 0.00 0.53 0.03 46 1006.5
20200606122540 25 180 11.3 22.5 0.00 0.53 0.03 46 1006.4
20200606122039 25 178 12.9 25.7 0.00 0.53 0.03 46 1006.3
20200606121539 25 188 8.0 17.7 0.00 0.53 0.03 47 1006.5
20200606121038 24 162 9.7 25.7 0.00 0.53 0.03 48 1006.4
20200606120538 24 179 11.3 24.1 0.00 0.53 0.03 47 1006.2
20200606120107 24 176 11.3 22.5 0.00 0.53 0.03 47 1006.2
20200606115538 23 162 8.0 17.7 0.00 0.53 0.03 48 1006.2
20200606115038 23 169 9.7 22.5 0.00 0.53 0.03 49 1006.3
20200606114536 23 150 8.0 19.3 0.00 0.53 0.03 48 1006.4
20200606114036 23 146 9.7 19.3 0.00 0.53 0.03 50 1006.5
20200606113535 23 153 9.7 24.1 0.00 0.53 0.03 49 1006.5
20200606113035 23 211 8.0 17.7 0.00 0.53 0.03 49 1006.4
20200606112534 23 179 9.7 19.3 0.00 0.53 0.03 49 1006.5
20200606112034 23 192 6.4 22.5 0.00 0.53 0.03 49 1006.4
20200606111533 23 197 6.4 12.9 0.00 0.53 0.03 49 1006.4
20200606111033 23 183 6.4 12.9 0.00 0.53 0.03 49 1006.4
20200606110533 23 244 4.8 12.9 0.00 0.53 0.03 49 1006.4
20200606110032 23 237 9.7 24.1 0.00 0.53 0.03 50 1006.3
20200606105532 22 213 6.4 11.3 0.00 0.53 0.03 50 1006.3
20200606105032 22 156 9.7 19.3 0.00 0.53 0.03 50 1006.2
20200606104531 22 248 6.4 16.1 0.00 0.53 0.03 49 1006.2
20200606104051 22 243 8.0 17.7 0.00 0.53 0.03 49 1006.3
20200606103530 22 219 9.7 22.5 0.00 0.53 0.03 51 1006.2
20200606103030 22 219 6.4 17.7 0.00 0.53 0.03 52 1006.2
20200606102529 22 209 6.4 12.9 0.00 0.53 0.03 52 1006.2
20200606102029 23 152 8.0 16.1 0.00 0.53 0.03 51 1006.2
20200606101529 23 184 8.0 16.1 0.00 0.53 0.03 49 1006.1
20200606101029 23 228 8.0 19.3 0.00 0.53 0.03 47 1006.1
20200606100528 24 213 6.4 17.7 0.00 0.53 0.03 46 1006.1
20200606100029 25 249 8.0 17.7 0.00 0.53 0.03 46 1006.1
20200606095527 24 229 6.4 16.1 0.00 0.53 0.03 48 1006.1
20200606095026 23 229 8.0 16.1 0.00 0.53 0.03 50 1006.1
20200606094526 22 217 11.3 19.3 0.00 0.53 0.03 50 1006.1
20200606094026 22 231 9.7 24.1 0.00 0.53 0.03 51 1006.2
20200606093525 22 246 6.4 17.7 0.00 0.53 0.03 51 1006.2
20200606093025 22 232 8.0 19.3 0.00 0.53 0.03 51 1006.2
20200606092524 22 252 6.4 16.1 0.00 0.53 0.03 52 1006.2
20200606092024 22 216 6.4 16.1 0.00 0.53 0.03 51 1006.3
20200606091053 22 234 9.7 24.1 0.00 0.53 0.03 51 1006.2
20200606090523 23 235 11.3 19.3 0.00 0.53 0.03 49 1006.1
20200606090053 24 232 9.7 24.1 0.00 0.53 0.03 49 1006.1
20200606085522 24 233 8.0 24.1 0.00 0.53 0.03 48 1006.1
20200606085022 25 223 9.7 25.7 0.00 0.53 0.03 50 1006.1
20200606084521 24 207 6.4 19.3 0.00 0.53 0.03 54 1006.0
20200606084021 23 208 6.4 17.7 0.00 0.53 0.03 54 1005.8
20200606083520 22 214 4.8 16.1 0.00 0.53 0.03 55 1005.8
20200606083051 22 200 6.4 22.5 0.00 0.53 0.03 56 1005.8
20200606082550 21 214 11.3 24.1 0.00 0.53 0.03 56 1005.7
20200606082049 21 235 9.7 22.5 0.00 0.53 0.03 57 1005.7
20200606081549 21 246 11.3 22.5 0.00 0.53 0.03 59 1005.8
20200606081048 20 246 12.9 24.1 0.00 0.53 0.03 61 1005.7
20200606080548 20 190 11.3 24.1 0.00 0.53 0.03 62 1005.7
20200606080048 19 247 11.3 25.7 0.00 0.53 0.03 64 1005.7
20200606075547 19 245 9.7 19.3 0.00 0.53 0.03 65 1005.6
20200606075047 18 224 9.7 24.1 0.00 0.53 0.03 66 1005.5
20200606074516 18 220 11.3 24.1 0.00 0.53 0.03 67 1005.6
20200606074046 18 241 11.3 24.1 0.00 0.53 0.03 67 1005.6
20200606073545 18 243 11.3 22.5 0.00 0.53 0.03 68 1005.5
20200606073045 17 245 12.9 25.7 0.00 0.53 0.03 69 1005.4
20200606072544 17 242 12.9 29.0 0.00 0.53 0.03 70 1005.4
20200606072044 17 186 8.0 17.7 0.00 0.53 0.03 72 1005.4
20200606071544 17 211 6.4 19.3 0.00 0.53 0.03 74 1005.4
20200606071043 17 231 9.7 22.5 0.00 0.53 0.03 74 1005.3
20200606070543 17 213 9.7 19.3 0.00 0.53 0.03 74 1005.3
20200606070042 16 229 8.0 16.1 0.00 0.53 0.03 75 1005.3
20200606065542 16 227 11.3 22.5 0.00 0.53 0.03 75 1005.2
20200606065042 16 227 9.7 33.8 0.00 0.53 0.03 76 1005.1
20200606064541 16 238 12.9 29.0 0.00 0.53 0.03 78 1005.1
20200606064041 16 219 9.7 19.3 0.00 0.53 0.03 80 1005.0
20200606063540 16 230 11.3 22.5 0.00 0.53 0.03 80 1005.0
20200606063040 15 219 12.9 22.5 0.00 0.53 0.03 82 1004.9
20200606062539 15 208 8.0 17.7 0.00 0.53 0.03 83 1005.0
20200606062039 15 218 6.4 16.1 0.00 0.53 0.03 84 1004.9
20200606061539 15 231 8.0 17.7 0.00 0.53 0.03 84 1005.0
20200606061038 15 229 6.4 19.3 0.00 0.53 0.03 84 1004.9
20200606060538 15 214 9.7 19.3 0.00 0.53 0.03 84 1004.9
20200606060037 14 237 11.3 22.5 0.00 0.53 0.03 83 1004.8
20200606055537 14 223 9.7 19.3 0.00 0.53 0.03 83 1004.7
20200606055037 14 233 6.4 19.3 0.00 0.53 0.03 81 1004.8
20200606054536 14 233 8.0 17.7 0.00 0.53 0.03 80 1004.8
20200606054036 14 220 8.0 19.3 0.00 0.53 0.03 79 1004.8
20200606053535 13 231 6.4 12.9 0.00 0.53 0.03 78 1004.9
20200606053035 13 189 6.4 16.1 0.00 0.53 0.03 78 1004.7
20200606052534 13 206 8.0 16.1 0.00 0.53 0.03 76 1004.6
20200606052034 13 223 6.4 12.9 0.00 0.53 0.03 76 1004.6
20200606051534 13 197 6.4 12.9 0.00 0.53 0.03 76 1004.5
20200606051033 13 234 9.7 24.1 0.03 0.53 0.03 76 1004.3
20200606050533 12 204 6.4 17.7 0.03 0.53 0.03 76 1004.4
20200606050032 12 215 6.4 19.3 0.03 0.53 0.03 76 1004.4
20200606045532 12 210 6.4 12.9 0.03 0.53 0.03 76 1004.4
20200606045031 12 217 6.4 12.9 0.03 0.53 0.03 76 1004.4
20200606044531 12 194 6.4 16.1 0.03 0.53 0.03 76 1004.4
20200606044030 12 202 6.4 11.3 0.03 0.53 0.03 75 1004.3
20200606043530 12 220 4.8 12.9 0.03 0.53 0.03 75 1004.2
20200606043030 12 242 6.4 11.3 0.03 0.53 0.03 75 1004.2
20200606042529 12 233 6.4 12.9 0.03 0.53 0.03 76 1004.1
20200606042029 12 236 8.0 17.7 0.03 0.53 0.03 76 1004.1
20200606041528 11 218 6.4 16.1 0.03 0.53 0.03 76 1004.0
20200606041028 11 225 8.0 16.1 0.00 0.51 0.00 76 1003.9
20200606040529 11 227 8.0 19.3 0.00 0.51 0.00 76 1003.9
20200606040027 11 222 4.8 11.3 0.00 0.51 0.00 76 1003.7
20200606035527 11 223 4.8 11.3 0.00 0.51 0.00 76 1003.6
20200606035026 11 226 4.8 12.9 0.00 0.51 0.00 77 1003.6
20200606034526 11 225 4.8 12.9 0.00 0.51 0.00 77 1003.5
20200606034055 11 226 4.8 11.3 0.00 0.51 0.00 77 1003.5
20200606033555 11 235 6.4 12.9 0.00 0.51 0.00 77 1003.4
20200606033025 11 240 4.8 12.9 0.00 0.51 0.00 77 1003.4
20200606032524 11 225 4.8 11.3 0.00 0.51 0.00 77 1003.3
20200606032024 11 231 4.8 8.0 0.00 0.51 0.00 77 1003.2
20200606031523 11 205 4.8 8.0 0.00 0.51 0.00 78 1003.2
20200606031023 11 225 3.2 6.4 0.00 0.51 0.00 78 1003.3
20200606030522 11 236 4.8 8.0 0.00 0.51 0.00 78 1003.2
20200606030124 11 226 4.8 11.3 0.00 0.51 0.00 78 1003.2
20200606025552 11 240 3.2 8.0 0.00 0.51 0.00 78 1003.2
20200606025051 11 228 4.8 8.0 0.00 0.51 0.00 78 1003.1
20200606024551 11 221 4.8 8.0 0.00 0.51 0.00 78 1003.1
20200606024050 11 229 4.8 12.9 0.00 0.51 0.00 78 1003.0
20200606023520 11 211 3.2 11.3 0.00 0.51 0.00 78 1003.0
20200606023020 11 217 3.2 11.3 0.00 0.51 0.00 78 1003.0
20200606022519 11 225 4.8 12.9 0.00 0.51 0.00 78 1002.9
20200606022019 11 226 4.8 8.0 0.00 0.51 0.00 78 1002.9
20200606021518 11 230 4.8 8.0 0.00 0.51 0.00 78 1002.9
20200606021018 11 229 4.8 8.0 0.00 0.51 0.00 78 1002.9
20200606020548 11 242 6.4 12.9 0.00 0.51 0.00 78 1002.9
20200606020047 11 237 4.8 12.9 0.00 0.51 0.00 78 1002.8
20200606015547 11 219 4.8 11.3 0.00 0.51 0.00 78 1002.8
20200606015046 11 223 3.2 6.4 0.00 0.51 0.00 78 1002.8
20200606014546 11 215 1.6 8.0 0.00 0.51 0.00 78 1002.8
20200606014045 11 213 3.2 6.4 0.00 0.51 0.00 78 1002.8
20200606013545 11 230 4.8 8.0 0.00 0.51 0.00 78 1002.7
20200606013045 11 221 3.2 8.0 0.00 0.51 0.00 78 1002.7
20200606012544 12 222 3.2 6.4 0.00 0.51 0.00 78 1002.6
20200606012044 12 222 3.2 6.4 0.00 0.51 0.00 78 1002.6
20200606011543 12 201 1.6 8.0 0.00 0.51 0.00 78 1002.4
20200606011043 12 218 1.6 8.0 0.00 0.51 0.00 78 1002.3
20200606010542 12 169 3.2 6.4 0.00 0.51 0.00 78 1002.3
20200606010042 12 184 3.2 6.4 0.00 0.51 0.00 78 1002.3
20200606005541 12 223 3.2 8.0 0.00 0.51 0.00 78 1002.2
20200606005041 12 214 1.6 6.4 0.00 0.51 0.00 78 1002.1
20200606004541 12 178 0.0 4.8 0.00 0.51 0.00 78 1002.0
20200606004040 12 187 3.2 8.0 0.00 0.51 0.00 78 1001.9
20200606003540 12 160 1.6 6.4 0.00 0.51 0.00 78 1001.9
20200606003039 12 164 3.2 6.4 0.00 0.51 0.00 78 1001.8
20200606002539 12 162 3.2 6.4 0.00 0.51 0.00 78 1001.9
20200606002039 12 164 3.2 8.0 0.00 0.51 0.00 78 1001.8
20200606001538 12 184 1.6 4.8 0.00 0.51 0.00 79 1001.8
20200606001038 12 231 1.6 4.8 0.00 0.51 0.00 79 1001.8
20200606000537 12 225 1.6 4.8 0.00 0.51 0.00 79 1001.8
20200606000037 12 217 1.6 4.8 0.00 0.51 0.00 78 1001.8
20200605235536 12 189 1.6 6.4 0.00 0.51 0.00 78 1001.7
20200605235036 12 170 3.2 6.4 0.00 0.51 0.00 79 1001.6
20200605234536 12 178 3.2 8.0 0.00 0.51 0.00 79 1001.5
20200605234035 12 152 3.2 6.4 0.00 0.51 0.00 79 1001.5
20200605233534 12 199 3.2 6.4 0.00 0.51 0.00 79 1001.5
20200605233034 12 181 3.2 6.4 0.00 0.51 0.00 79 1001.5
20200605232534 13 191 3.2 8.0 0.00 0.51 0.00 80 1001.4
20200605232033 13 224 3.2 6.4 0.00 0.51 0.00 80 1001.4
20200605231533 13 224 3.2 8.0 0.00 0.51 0.00 80 1001.4
20200605231032 13 204 3.2 8.0 0.00 0.51 0.00 80 1001.3
20200605230532 13 186 3.2 6.4 0.00 0.51 0.00 80 1001.2
20200605230032 13 222 3.2 6.4 0.00 0.51 0.00 80 1001.2
20200605225531 13 195 3.2 6.4 0.00 0.51 0.00 80 1001.1
20200605225101 13 193 3.2 8.0 0.00 0.51 0.00 80 1001.1
20200605224530 13 170 1.6 8.0 0.00 0.51 0.00 80 1001.1
20200605224030 13 153 4.8 11.3 0.00 0.51 0.00 81 1001.0
20200605223529 13 164 3.2 8.0 0.00 0.51 0.00 81 1001.0
20200605223029 13 156 4.8 11.3 0.00 0.51 0.00 81 1000.9
20200605222529 13 156 4.8 8.0 0.00 0.51 0.00 81 1001.0
20200605222028 13 151 3.2 6.4 0.00 0.51 0.00 81 1000.9
20200605221528 13 145 3.2 8.0 0.00 0.51 0.00 81 1000.9
20200605221057 13 142 1.6 6.4 0.00 0.51 0.00 81 1000.9
20200605220527 13 149 3.2 6.4 0.00 0.51 0.00 81 1000.9
20200605220027 13 140 3.2 6.4 0.00 0.51 0.00 81 1000.9
20200605215526 13 149 1.6 4.8 0.00 0.51 0.51 81 1000.8
20200605215026 13 149 1.6 8.0 0.00 0.51 0.51 81 1000.8
20200605214525 13 148 1.6 6.4 0.00 0.51 0.51 82 1000.7
20200605214025 13 152 3.2 6.4 0.00 0.51 0.51 82 1000.6
20200605213825 13 161 1.6 6.4 0.00 0.51 0.51 82 1000.6
20200605213024 13 0.0 0.0 0.00 0.51 0.51 82 1000.6
20200605212554 13 0.0 0.0 0.00 0.51 0.51 82 1000.4
20200605212053 13 0.0 0.0 0.00 0.51 0.51 83 1000.4
20200605211623 13 0.0 0.0 0.00 0.51 0.51 83 1000.2
20200605211053 13 0.0 0.0 0.00 0.51 0.51 83 1000.2
20200605210552 13 173 1.6 4.8 0.00 0.51 0.51 83 1000.2
20200605210022 13 218 1.6 4.8 0.00 0.51 0.51 83 1000.2
20200605205551 13 225 0.0 4.8 0.00 0.51 0.51 83 1000.2
20200605205021 13 230 1.6 4.8 0.00 0.51 0.51 83 1000.2
20200605204521 13 221 0.0 4.8 0.00 0.51 0.51 83 1000.3
20200605204020 13 220 1.6 4.8 0.03 0.51 0.51 83 1000.3
20200605203550 14 225 1.6 6.4 0.05 0.51 0.51 83 1000.3
20200605203049 14 236 1.6 6.4 0.08 0.51 0.51 83 1000.2
20200605202549 14 218 1.6 4.8 0.08 0.51 0.51 83 1000.2
20200605202049 14 225 3.2 6.4 0.10 0.51 0.51 84 1000.2
20200605201548 14 225 1.6 6.4 0.10 0.51 0.51 84 1000.2
20200605201118 14 221 1.6 4.8 0.13 0.51 0.51 84 1000.2
20200605200517 14 221 1.6 4.8 0.13 0.51 0.51 84 1000.2
20200605200047 14 228 1.6 6.4 0.15 0.51 0.51 84 1000.1
20200605195547 14 235 1.6 4.8 0.15 0.51 0.51 84 1000.1
20200605195016 14 191 1.6 4.8 0.18 0.51 0.51 84 1000.0
20200605194546 14 225 1.6 4.8 0.23 0.51 0.51 84 1000.1
20200605194045 14 220 1.6 8.0 0.20 0.48 0.48 84 1000.2
20200605193545 15 226 1.6 6.4 0.18 0.46 0.46 84 1000.2
20200605193044 15 219 1.6 4.8 0.15 0.43 0.43 84 1000.2
20200605192544 15 193 3.2 8.0 0.15 0.43 0.43 84 1000.1
20200605192043 15 232 4.8 11.3 0.13 0.41 0.41 84 999.9
20200605191543 15 230 3.2 8.0 0.13 0.41 0.41 84 999.5
20200605191042 15 236 4.8 8.0 0.10 0.38 0.38 84 999.5
20200605190542 15 226 6.4 12.9 0.10 0.38 0.38 84 999.6
20200605190042 15 234 6.4 12.9 0.08 0.36 0.36 83 999.8
20200605185541 16 221 4.8 12.9 0.10 0.36 0.36 83 999.6
20200605185041 16 227 4.8 12.9 0.08 0.33 0.33 83 999.5
20200605184540 16 214 4.8 17.7 0.03 0.28 0.28 83 999.5
20200605184040 16 218 3.2 12.9 0.03 0.28 0.28 83 999.3
20200605183539 16 236 3.2 4.8 0.03 0.28 0.28 83 999.1
20200605183039 16 231 1.6 6.4 0.03 0.28 0.28 83 999.0
20200605182538 16 212 1.6 6.4 0.03 0.28 0.28 83 998.8
20200605182038 16 219 4.8 11.3 0.03 0.28 0.28 83 998.8
20200605181537 16 220 4.8 11.3 0.03 0.28 0.28 83 998.8
20200605181037 16 232 3.2 11.3 0.03 0.28 0.28 83 998.7
20200605180536 16 215 4.8 8.0 0.03 0.28 0.28 83 998.5
20200605180036 16 230 4.8 11.3 0.03 0.28 0.28 83 998.5
20200605175535 16 230 4.8 8.0 0.00 0.25 0.25 83 998.6
20200605175035 16 224 4.8 11.3 0.00 0.25 0.25 83 998.6
20200605174535 16 233 6.4 12.9 0.00 0.25 0.25 83 998.6
20200605174034 16 242 6.4 11.3 0.00 0.25 0.25 83 998.5
20200605173534 16 230 8.0 12.9 0.00 0.25 0.25 83 998.4
20200605173033 16 251 4.8 12.9 0.00 0.25 0.25 83 998.4
20200605172533 16 242 6.4 11.3 0.00 0.25 0.25 83 998.4
20200605172032 16 232 6.4 16.1 0.00 0.25 0.25 83 998.4